Location: Waco, TX
(31.5480°N, 97.1670°W)
Time: 04:00:36
(UTC-06:00)

ISS - Pass Details

Date: 23 November 2017
Orbit: 401 x 407 km, 51.6° (Epoch: 18 November)

Event Time Altitude Azimuth Distance (km) Brightness Sun altitude
Rises 18:27:44 0° 186° (S) 2,306 0.3 -13.1°
Reaches altitude 10° 18:30:33 10° 159° (SSE) 1,451 -1.1 -13.7°
Enters shadow 18:32:13 14° 128° (SE) 1,243 -1.7 -14.0°
Maximum altitude 18:32:18 14° 126° (SE) 1,243 - -14.1°
Drops below altitude 10° 18:34:04 10° 93° (E) 1,455 - -14.4°
Sets 18:36:53 0° 67° (ENE) 2,317 - -15.0°
